Location: Unspecified
(58.9933°N, 5.6375°E)
Time: 23:47:44
(UTC+02:00)

CZ-3 Stage 3 - Visible Passes

Search period start: 25 April 2015 00:00
Search period end: 05 May 2015 00:00
Orbit: 419 x 34810 km, 31.0° (Epoch: 23 April)

Date Brightness Start Highest point End Pass type
(mag) Time Alt. Az. Time Alt. Az. Time Alt. Az.
27 Apr 8.2 14:40:58 10° WSW 22:27:00 22° W 23:15:51 10° WSW visible
30 Apr 8.3 14:35:36 10° WSW 22:19:01 21° W 23:07:55 10° WSW visible
03 May 8.5 14:30:10 10° WSW 22:10:50 21° W 22:59:37 10° WSW visible
